Flag for Germany Weather past 2 weeks in Celle, Lower Saxony, Germany

Now
64 °F

Passing clouds.


Feels Like: 64 °F
Forecast: 50 / 71 °F
Wind: 8 mph from East

Location: Celle Airport


UV Index: 3 (Moderate)

Visibility: N/A


Pressure: 30.09 "Hg

Humidity: 64%

Dew point: 52 °F

Location of CelleLocation

Historic Weather in Celle

°F

Celle temperature yesterday

Maximum temperature yesterday: 68 °F (at 2:20 PM)
Minimum temperature yesterday: 45 °F (at 6:20 AM)
Average temperature yesterday: 57 °F

Past Weeks' High & Low Weather Summary

 TemperatureHumidityPressure
High68 °F (Apr 20, 3:20 PM)100% (Apr 9, 11:20 PM)30.48 "Hg (Apr 9, 11:20 PM)
Low30 °F (Apr 16, 4:20 AM)34% (Apr 17, 3:20 PM)29.68 "Hg (Apr 21, 3:20 PM)
Average51 °F77%30.03 "Hg
* Reported Apr 9 5:20 PM — Apr 24 5:20 PM, Celle, Weather by CustomWeather, © 2014

Note: Actual official high and low records may vary slightly from our data, if they occured in-between our weather recording intervals... More about our weather records

Advertising

Historic Weather Conditions — Data for Previous 24 hours

 ConditionsComfort  
Time TempWeatherWind HumidityBarometerVisibility
5:20 PM
Apr 24
64 °FPassing clouds.8 mph68%30.09 "HgN/A
4:20 PM63 °FPassing clouds.9 mph73%30.09 "HgN/A
3:20 PM59 °FScattered clouds.7 mph77%30.12 "Hg6 mi
2:20 PM57 °FPartly sunny.7 mph82%30.15 "Hg6 mi
1:20 PM55 °FPartly sunny.6 mph82%30.15 "Hg6 mi
12:20 PM54 °FPartly sunny.5 mph88%30.15 "Hg6 mi
11:20 AM54 °FPartly sunny.3 mph88%30.18 "Hg6 mi
11:04 AM52 °FPartly sunny.6 mph94%30.18 "Hg5 mi
10:20 AM52 °FFog.7 mph94%30.18 "Hg2 mi
9:49 AM52 °FFog.7 mph94%30.18 "Hg1 mi
9:20 AM52 °FDrizzle. Fog.8 mph94%30.18 "Hg1 mi
8:20 AM52 °FDrizzle. Fog.6 mph94%30.18 "Hg1 mi
7:20 AM52 °FDrizzle. Fog.6 mph100%30.15 "Hg1 mi
6:20 AM54 °FDrizzle. Fog.7 mph94%30.15 "Hg1 mi
5:20 AM54 °FDrizzle. Fog.6 mph100%30.12 "Hg1 mi
4:20 AM54 °FDrizzle. Fog.6 mph100%30.15 "Hg1 mi
3:49 AM54 °FDrizzle. Fog.5 mph100%30.15 "Hg1 mi
3:20 AM54 °FFog.6 mph100%30.15 "Hg1 mi
2:57 AM54 °FFog.6 mph100%30.15 "Hg1 mi
2:20 AM54 °FFog.3 mph94%30.15 "Hg2 mi
1:20 AM54 °FFog.5 mph94%30.15 "Hg3 mi
12:20 AM55 °FPassing clouds.5 mph94%30.15 "Hg4 mi
11:50 PM
Apr 23
55 °FPassing clouds.3 mph94%30.15 "Hg4 mi
11:20 PM57 °FPassing clouds.5 mph88%30.15 "Hg5 mi
10:20 PM57 °FPassing clouds.5 mph88%30.12 "HgN/A
9:20 PM59 °FPartly sunny.5 mph82%30.12 "HgN/A
8:20 PM63 °FPartly sunny.6 mph73%30.12 "HgN/A
7:20 PM64 °FBroken clouds.8 mph68%30.09 "HgN/A
6:20 PM66 °FPartly sunny.7 mph64%30.09 "HgN/A
Weather by CustomWeather, © 2014

See weather overview